Location: Byhalia Creek
(34.8270°N, 89.8040°W)
Time: 08:47:50
(UTC+00:00)

Cosmos 1000 Rocket - Pass Details

Date: 22 April 2026
Orbit: 952 x 992 km, 82.9° (Epoch: 15 May)

Event Time Altitude Azimuth Distance (km) Brightness Sun altitude
Rises 02:28:35 0° 355° (N) 3,638 8.0 -21.7°
Reaches altitude 10° 02:31:06 10° 357° (N) 2,686 7.3 -22.2°
Maximum altitude 02:37:13 75° 83° (E) 985 4.3 -23.2°
Enters shadow 02:39:11 45° 157° (SSE) 1,269 4.7 -23.5°
